Regional Weather Roundup
Issued by NWS

Home | Current Version | Previous Version | Graphics & Text | Print | Product List | Glossary On
Versions: 1 2 3 4 5 6 7 8 9 10 11 12 13 14 15 16 17 18 19 20 21 22 23 24 25 26 27 28 29 30 31 32 33 34 35 36 37 38 39 40 41 42 43 44 45 46 47 48 49 50
664
ASUS43 KMPX 281710
RWRMN
WEATHER ROUNDUP FOR MINNESOTA
NATIONAL WEATHER SERVICE TWIN CITIES/CHANHASSEN MN
1200 PM CDT WED SEP 28 2016


NOTE: "FAIR" INDICATES FEW OR NO CLOUDS BELOW 12,000 FEET WITH NO
SIGNIFICANT WEATHER AND/OR OBSTRUCTIONS TO VISIBILITY. N/A MEANS
CURRENT SKY AND/OR WEATHER CONDITIONS ARE NOT AVAILABLE.

MNZ060>063-068>070-281800-
   Twin Cities Metro

CITY           SKY/WX    TMP DP  RH WIND       PRES   REMARKS
TWIN CITIES    CLOUDY    58  49  72 N12G23    30.17R
ST PAUL        CLOUDY    59  50  72 N8        30.17R
CRYSTAL        CLOUDY    58  46  64 N13G20    30.17R
BLAINE         PTSUNNY   61  52  72 N14G20    30.17R
LAKEVILLE      CLOUDY    55  48  76 N12G17    30.16R
EDEN PRAIRIE   CLOUDY    59  49  69 N13       30.16R
LAKEVILLE      CLOUDY    55  48  76 N12G17    30.16R
SOUTH ST PAUL  CLOUDY    58  48  69 N8        30.15R
LAKE ELMO      CLOUDY    57  50  77 N10       30.17R
$$
MNZ001>005-007-008-013>017-022>024-027-028-281800-
   Northwest Minnesota

CITY           SKY/WX    TMP DP  RH WIND       PRES   REMARKS
BEMIDJI        CLOUDY    54  47  77 N6        30.28R
HALLOCK        PTSUNNY   55  46  71 NW3       30.31R
ROSEAU         CLOUDY    55  48  76 CALM      30.30R
WARROAD        CLOUDY    55  48  76 CALM      30.31R
THIEF RVR FALL CLOUDY    56  47  71 NE5       30.30S
CROOKSTON      CLOUDY    54  48  82 NE3       30.31R
FOSSTON        CLOUDY    54  48  82 N7        30.30R
DETROIT LAKES  PTSUNNY   54  46  76 N7        30.28S
MOORHEAD       CLOUDY    54  46  76 NE7       30.30S
PARK RAPIDS    CLOUDY    57  44  62 N10       30.26R
MAHNOMEN       CLOUDY    52  47  82 N5        30.29S
$$
MNZ006-009>011-018-025>026-281800-
   North Central Minnesota

CITY           SKY/WX    TMP DP  RH WIND       PRES   REMARKS
BAUDETTE       CLOUDY    53  48  83 CALM      30.31R
FLAG ISLAND      N/A    N/A N/A N/A CALM      30.29R
INTL FALLS     CLOUDY    55  46  71 NE8       30.28R
WASKISH        CLOUDY    54  50  87 N3        30.29R
BIG FORK       PTSUNNY   57  48  72 NE8       30.26S
GRAND RAPIDS   CLOUDY    55  47  74 NE8       30.27R
ORR            CLOUDY    55  46  71 CALM      30.24R
COOK           CLOUDY    54  48  82 N6        30.26R
WALKER         PTSUNNY   54  46  75 NE8       30.26R
$$
MNZ012-019>021-037-281800-
   Northeast Minnesota

CITY           SKY/WX    TMP DP  RH WIND       PRES   REMARKS
DULUTH         CLOUDY    57  49  74 N9        30.21R
ELY            CLOUDY    55  46  71 NE5       30.24R
HIBBING        CLOUDY    53  46  77 N8        30.25R
EVELETH        PTSUNNY   58  48  71 NE7       30.25R
DULUTH HARBOR  CLOUDY    57  52  82 NE13      30.21R
TWO HARBORS    CLOUDY    61  52  72 NE5       30.19R
SILVER BAY     CLOUDY    61  48  63 NE8       30.19R
GRAND MARAIS     N/A     60  49  66 VRB5G17   30.19R
G MARAIS ARPRT CLOUDY    54  45  71 N10       30.21S
$$
MNZ029>031-032-039>041-046>048-054>057-064-281800-
   West Central Minnesota

CITY           SKY/WX    TMP DP  RH WIND       PRES   REMARKS
FERGUS FALLS   PTSUNNY   55  46  71 N7        30.29S
MORRIS         PTSUNNY   57  46  67 N12       30.25R
ALEXANDRIA     PTSUNNY   60  48  64 NE12      30.25R
ELBOW LAKE     CLOUDY    54  47  76 NW8       30.26S
WADENA         CLOUDY    54  46  76 N9        30.25S
GLENWOOD       MOSUNNY   57  48  72 N8        30.24R
APPLETON       CLOUDY    55  45  67 NW7       30.25R
BENSON         PTSUNNY   59  46  63 NE6       30.24R
ORTONVILLE     CLOUDY    52  45  76 CALM      30.27R
MADISON        PTSUNNY   55  46  71 NW8       30.26R
WILLMAR        PTSUNNY   59  50  72 NE13      30.23S
$$
MNZ033>034-036-042>043-049>051-058-059-281800-
   Central Minnesota

CITY           SKY/WX    TMP DP  RH WIND       PRES   REMARKS
ST CLOUD       CLOUDY    58  50  75 N14       30.21R
SAUK CENTRE    PTSUNNY   58  46  64 N10G16    30.23R
PAYNESVILLE    CLOUDY    59  46  61 N12       30.23R
AITKIN         CLOUDY    59  46  63 N10       30.22R
PINE RIVER     PTSUNNY   57  48  72 NE12G17   30.27R
BRAINERD       CLOUDY    55  47  74 N10       30.24R
STAPLES        CLOUDY    55  46  71 N7        30.24R
LONG PRAIRIE   CLOUDY    55  46  71 N5        30.23R
LITTLE FALLS   CLOUDY    54  45  71 N5        30.23S
LITCHFIELD     MOSUNNY   61  48  63 N12       30.21R
BUFFALO        CLOUDY    57  48  72 N10       30.20R
MAPLE LAKE     CLOUDY    58  51  78 N10       30.21R
HUTCHINSON     CLOUDY    59  50  72 N10G16    30.21R
$$
MNZ037-044-045-052-053-281800-
   East Central Minnesota

CITY           SKY/WX    TMP DP  RH WIND       PRES   REMARKS
PRINCETON      CLOUDY    59  50  72 N10       30.20R
MORA           CLOUDY    55  46  71 N3        30.22R
CAMBRIDGE      CLOUDY    61  46  59 N9G17     30.18R
MOOSE LAKE     CLOUDY    57  46  67 NE6       30.19R
HINCKLEY       CLOUDY    55  50  82 N10G16    30.20R
CLOQUET        CLOUDY    57  46  67 N7        30.21R
MCGREGOR       CLOUDY    55  46  71 NE9       30.23R
$$
MNZ071>073-080-081-089-090-097-098-281800-
   Southwest Minnesota

CITY           SKY/WX    TMP DP  RH WIND       PRES   REMARKS
MONTEVIDEO     CLOUDY    57  48  72 N10       30.25S
GRANITE FALLS  CLOUDY    58  48  71 NW7       30.24S
CANBY          CLOUDY    51  46  83 N5        30.27S
MARSHALL       CLOUDY    52  45  77 N9        30.25R
REDWOOD FALLS  CLOUDY    58  47  66 N9        30.21R
OLIVIA         CLOUDY    59  48  67 N10       30.21R
PIPESTONE      CLOUDY    48  45  87 N8        30.24R
WINDOM         PTSUNNY   55  46  71 N14       30.21R
WORTHINGTON    CLOUDY    51  45  79 N12       30.23R
JACKSON        PTSUNNY   55  45  67 N15G21    30.20R
TRACY          CLOUDY    54  47  78 N10       30.23S
SLAYTON        CLOUDY    48  45  87 N10G17    30.24R
$$
MNZ065>067-074>077-082>085-091>093-281800-
   South Central Minnesota

CITY           SKY/WX    TMP DP  RH WIND       PRES   REMARKS
MANKATO        CLOUDY    56  48  74 N16       30.18R
NEW ULM        CLOUDY    55  46  71 NE13      30.20R
ST JAMES       CLOUDY    57  46  67 N10G16    30.20R
FAIRMONT       CLOUDY    56  47  71 N13G21    30.19R
GLENCOE        CLOUDY    57  51  80 N9        30.19R
FARIBAULT      CLOUDY    57  48  72 NW10      30.15R
OWATONNA       CLOUDY    57  46  67 N15       30.14R
WASECA         CLOUDY    55  46  71 N9        30.17R
ALBERT LEA     CLOUDY    57  48  72 N10G20    30.13R
$$
MNZ078>079-086>088-094>096-281800-
   Southeast Minnesota

CITY           SKY/WX    TMP DP  RH WIND       PRES   REMARKS
ROCHESTER      CLOUDY    56  51  84 N12       30.11R
RED WING       CLOUDY    61  48  63 N8G21     30.11R
STANTON        CLOUDY    58  49  70 N14G20    30.13R
DODGE CENTER   CLOUDY    55  48  76 N10G20    30.12R
WINONA         CLOUDY    59  50  72 N6        30.07S
AUSTIN         CLOUDY    57  48  72 N9        30.11R
PRESTON        CLOUDY    56  49  78 N17G23    30.08R
$$
ABBREVIATIONS USED IN REMARKS
   TC - TEMPERATURES IN CELSIUS
  WCI - WIND CHILL INDEX
   HX - HEAT INDEX
  VSB - VISIBILITY
$$




USA.gov is the U.S. government's official web portal to all federal, state and local government web resources and services.